ROMMA est une association bénévole à but non lucratif. Votre soutien est indispensable : ADHERER à ROMMA ou FAIRE un DON

Chambon - (38, Isère)

Oisans (2460 m)   Longitude: 06° 10' 42" E   Latitude: 45° 01' 32" N Station partenaire n°803
 

Détail journalier du     <<     >>

Température Humidité Vent Dir Rafale Dir. rafale Neige 1 Neige 2
Heure (°C) (%) (km/h) (km/h) (cm) (cm)
01:00 -9.6702N7N188228
02:00 -9.8641NNE5O188228
03:00 -9.3603NNE8NNE188228
04:00 -8.3457NNE14NNE188228
05:00 -8.6415N12NNE188228
06:00 -8.4394SSO9OSO188228
07:00 -7.8314SSO11OSO188227
08:00 -7.5305SSO12O188227
09:00 -6.2298OSO12OSO188227
10:00 -5.4297OSO14ONO188228
11:00 -3.4266ONO14ONO187228
12:00 -4.8338NNE23NNE188228
13:00 -4.33511N33NNE188228
14:00 -4.13521NNE38NE188228
15:00 -3.64115NE32NE187227
16:00 -3.1515N19NE187227
17:00 -3.5567N18NNE187227
18:00 -4.9668NNE17NNE187227
19:00 -5.4702NNE8NNE187227
20:00 -6.3742N11N187227
21:00 -5.9648N24NE187227
22:00 -4.33925NE49NE187227
23:00 -4.03032NE53NE187226
minuit -3.62524NE48NE187226

Graphique du 20-03-2019

 

Serveur OMMA